QPF
0.00 0.00 0.00 0.00 0.00 0.00 0.00 0.00 0.00 0.00 0.00 0.00 0.00 0.00 0.00 0.00 0.00 0.00 0.00 0.00 0.00 0.00 0.00 0.00 0.00 0.00 0.00 0.00 0.00 0.00 0.00 0.00 0.00 0.00 0.00 0.00 0.02 0.01 0.00 0.00 0.00 0.00 0.00 0.00
0.00 0.00 0.00 0.00 0.00 0.00 0.00 0.00 0.00 0.00 0.00 0.00 0.00 0.00 0.00 0.00 0.00 0.00 0.00 0.00 0.00 0.00 0.00 0.00 0.00 0.00 0.00 0.00 0.00 0.00 0.00 0.00 0.00 0.00 0.01 0.02 0.04 0.02 0.00 0.00 0.00 0.00 0.00 0.00
0.00 0.00 0.00 0.00 0.00 0.00 0.00 0.00 0.00 0.00 0.00 0.00 0.00 0.00 0.00 0.00 0.00 0.00 0.00 0.00 0.00 0.00 0.00 0.00 0.00 0.00 0.00 0.00 0.00 0.00 0.00 0.00 0.00 0.00 0.00 0.02 0.02 0.01 0.00 0.00 0.00 0.00 0.00 0.00
0.00 0.00 0.00 0.00 0.00 0.00 0.00 0.00 0.00 0.00 0.00 0.00 0.00 0.00 0.00 0.00 0.00 0.00 0.00 0.00 0.00 0.00 0.00 0.00 0.00 0.00 0.00 0.00 0.00 0.00 0.00 0.00 0.00 0.00 0.00 0.01 0.01 0.00 0.00 0.00 0.00 0.00 0.00 0.00
0.00 0.00 0.00 0.00 0.00 0.00 0.00 0.00 0.00 0.00 0.00 0.00 0.00 0.01 0.00 0.00 0.00 0.00 0.00 0.00 0.00 0.00 0.00 0.00 0.00 0.00 0.00 0.00 0.00 0.00 0.00 0.00 0.00 0.00 0.01 0.01 0.01 0.00 0.00 0.00 0.00 0.00 0.00 0.00
0.00 0.00 0.00 0.00 0.00 0.00 0.00 0.00 0.00 0.00 0.00 0.00 0.00 0.01 0.00 0.00 0.00 0.00 0.00 0.00 0.00 0.00 0.00 0.00 0.00 0.00 0.00 0.00 0.00 0.00 0.00 0.01 0.02 0.02 0.02 0.02 0.01 0.00 0.00 0.00 0.00 0.00 0.00 0.00
0.00 0.00 0.00 0.00 0.00 0.00 0.00 0.00 0.00 0.00 0.00 0.00 0.00 0.00 0.00 0.00 0.00 0.00 0.00 0.00 0.00 0.00 0.00 0.00 0.00 0.00 0.00 0.00 0.00 0.00 0.00 0.03 0.06 0.04 0.01 0.00 0.00 0.00 0.00 0.00 0.00 0.00 0.00 0.00
0.00 0.00 0.00 0.00 0.00 0.00 0.00 0.00 0.00 0.00 0.00 0.00 0.00 0.00 0.00 0.00 0.00 0.00 0.00 0.00 0.00 0.00 0.00 0.00 0.00 0.00 0.00 0.00 0.00 0.00 0.00 0.05 0.09 0.07 0.02 0.00 0.00 0.00 0.00 0.00 0.00 0.00 0.00 0.00
0.01 0.01 0.00 0.00 0.00 0.00 0.00 0.00 0.00 0.02 0.00 0.01 0.00 0.00 0.00 0.00 0.00 0.00 0.00 0.00 0.00 0.00 0.00 0.00 0.00 0.00 0.00 0.00 0.00 0.00 0.03 0.07 0.11 0.10 0.04 0.00 0.00 0.00 0.00 0.00 0.00 0.00 0.00 0.00
0.02 0.01 0.00 0.00 0.00 0.00 0.01 0.01 0.02 0.02 0.01 0.00 0.00 0.00 0.00 0.00 0.00 0.00 0.00 0.00 0.00 0.00 0.00 0.00 0.00 0.00 0.00 0.00 0.00 0.01 0.04 0.07 0.10 0.06 0.03 0.00 0.00 0.00 0.00 0.00 0.00 0.00 0.00 0.00
0.01 0.00 0.00 0.00 0.00 0.02 0.03 0.02 0.04 0.04 0.03 0.01 0.00 0.00 0.00 0.00 0.00 0.00 0.00 0.00 0.00 0.00 0.00 0.00 0.00 0.00 0.00 0.00 0.00 0.01 0.03 0.05 0.06 0.04 0.03 0.01 0.00 0.00 0.00 0.00 0.00 0.00 0.00 0.00
0.00 0.00 0.01 0.00 0.00 0.01 0.01 0.01 0.01 0.02 0.02 0.02 0.01 0.01 0.01 0.00 0.00 0.00 0.00 0.00 0.00 0.00 0.00 0.00 0.00 0.00 0.00 0.00 0.00 0.00 0.02 0.04 0.03 0.04 0.03 0.01 0.00 0.00 0.00 0.00 0.00 0.00 0.00 0.00
0.00 0.01 0.00 0.00 0.02 0.01 0.01 0.00 0.00 0.00 0.00 0.00 0.00 0.00 0.00 0.00 0.00 0.01 0.01 0.00 0.00 0.00 0.00 0.00 0.00 0.00 0.00 0.00 0.00 0.00 0.01 0.02 0.01 0.02 0.00 0.00 0.00 0.00 0.00 0.00 0.00 0.00 0.00 0.00
0.02 0.01 0.01 0.00 0.00 0.00 0.00 0.00 0.00 0.01 0.00 0.00 0.00 0.00 0.00 0.00 0.00 0.00 0.00 0.00 0.00 0.00 0.00 0.00 0.00 0.00 0.00 0.00 0.00 0.00 0.00 0.00 0.00 0.00 0.00 0.00 0.00 0.00 0.00 0.00 0.00 0.00 0.00 0.00
0.02 0.00 0.00 0.00 0.00 0.00 0.00 0.00 0.00 0.00 0.00 0.00 0.00 0.00 0.00 0.00 0.00 0.00 0.00 0.00 0.00 0.00 0.00 0.00 0.00 0.00 0.00 0.00 0.00 0.00 0.00 0.00 0.00 0.00 0.00 0.00 0.00 0.00 0.00 0.00 0.00 0.00 0.00 0.00
0.00 0.00 0.00 0.00 0.00 0.00 0.00 0.00 0.00 0.00 0.00 0.00 0.00 0.00 0.00 0.00 0.00 0.00 0.00 0.00 0.00 0.00 0.00 0.00 0.00 0.00 0.00 0.00 0.00 0.00 0.00 0.00 0.00 0.00 0.00 0.00 0.00 0.00 0.00 0.00 0.00 0.00 0.00 0.00
0.00 0.00 0.00 0.00 0.00 0.00 0.00 0.00 0.00 0.00 0.00 0.00 0.00 0.00 0.00 0.00 0.00 0.00 0.00 0.00 0.00 0.00 0.00 0.00 0.00 0.00 0.00 0.00 0.00 0.00 0.00 0.00 0.00 0.00 0.00 0.00 0.00 0.00 0.00 0.00 0.00 0.00 0.00 0.00
0.00 0.00 0.00 0.00 0.00 0.00 0.00 0.00 0.00 0.00 0.00 0.00 0.00 0.00 0.00 0.00 0.00 0.00 0.00 0.00 0.00 0.00 0.00 0.00 0.01 0.01 0.00 0.00 0.00 0.00 0.00 0.00 0.00 0.00 0.00 0.00 0.00 0.00 0.00 0.00 0.00 0.00 0.00 0.00
0.00 0.00 0.00 0.00 0.00 0.00 0.00 0.00 0.00 0.00 0.00 0.00 0.00 0.00 0.00 0.00 0.00 0.00 0.00 0.00 0.00 0.00 0.00 0.01 0.01 0.01 0.00 0.00 0.00 0.00 0.00 0.00 0.00 0.00 0.00 0.00 0.00 0.00 0.00 0.00 0.00 0.00 0.00 0.00
0.00 0.00 0.00 0.00 0.01 0.00 0.00 0.00 0.00 0.02 0.01 0.00 0.00 0.00 0.00 0.00 0.00 0.00 0.00 0.00 0.00 0.00 0.00 0.00 0.00 0.00 0.00 0.00 0.00 0.00 0.00 0.00 0.00 0.00 0.00 0.00 0.00 0.00 0.00 0.00 0.00 0.00 0.00 0.00
0.00 0.00 0.00 0.00 0.01 0.01 0.01 0.00 0.01 0.03 0.00 0.00 0.00 0.00 0.00 0.00 0.01 0.01 0.01 0.00 0.01 0.01 0.00 0.00 0.00 0.00 0.00 0.00 0.00 0.00 0.00 0.00 0.00 0.00 0.00 0.00 0.00 0.00 0.00 0.00 0.00 0.00 0.00 0.00
0.00 0.00 0.01 0.01 0.01 0.02 0.00 0.00 0.01 0.01 0.00 0.00 0.00 0.00 0.00 0.00 0.00 0.00 0.01 0.01 0.00 0.00 0.00 0.00 0.00 0.00 0.00 0.00 0.00 0.00 0.00 0.00 0.00 0.00 0.00 0.00 0.00 0.00 0.00 0.00 0.00 0.00 0.00 0.00
0.00 0.01 0.01 0.01 0.01 0.00 0.00 0.00 0.01 0.01 0.00 0.00 0.00 0.00 0.00 0.00 0.00 0.00 0.00 0.00 0.00 0.00 0.00 0.00 0.00 0.00 0.00 0.00 0.00 0.00 0.00 0.00 0.00 0.00 0.00 0.00 0.00 0.00 0.00 0.00 0.00 0.00 0.00 0.00
0.00 0.00 0.00 0.00 0.00 0.00 0.00 0.00 0.00 0.00 0.00 0.00 0.00 0.00 0.01 0.00 0.00 0.00 0.00 0.00 0.00 0.00 0.00 0.00 0.00 0.00 0.00 0.00 0.00 0.00 0.00 0.00 0.00 0.00 0.00 0.00 0.00 0.00 0.00 0.00 0.00 0.00 0.00 0.00
0.00 0.00 0.00 0.00 0.00 0.00 0.00 0.00 0.00 0.00 0.00 0.00 0.00 0.00 0.00 0.00 0.00 0.00 0.00 0.00 0.00 0.00 0.00 0.00 0.00 0.00 0.00 0.00 0.00 0.00 0.00 0.00 0.00 0.00 0.00 0.00 0.00 0.00 0.00 0.00 0.00 0.00 0.00 0.00
0.00 0.00 0.00 0.00 0.00 0.00 0.00 0.00 0.00 0.00 0.00 0.00 0.00 0.02 0.01 0.00 0.00 0.00 0.00 0.00 0.00 0.00 0.00 0.00 0.00 0.00 0.00 0.00 0.00 0.00 0.00 0.00 0.00 0.00 0.00 0.00 0.00 0.00 0.00 0.00 0.00 0.00 0.00 0.00
MSLP
1010.58 1010.79 1009.72 1009.20 1009.39 1009.23 1009.57 1009.43 1008.59 1008.24 1007.79 1007.42 1006.91 1003.89 1001.61 1002.60 1002.66 1002.42 1001.93 1001.88 1001.72 1001.57 1000.72 1001.94 1003.04 1003.65 1004.54 1005.34 1005.96 1006.65 1007.88 1008.93 1009.87 1010.73 1011.58 1012.51 1013.21 1014.31 1015.12 1015.61 1015.83 1016.17 1016.54 1016.75
1010.69 1008.19 1008.54 1008.79 1008.93 1009.03 1009.30 1009.16 1007.27 1007.00 1007.21 1007.23 1006.63 1003.65 1000.67 1001.79 1001.56 1001.48 1001.23 1000.89 1000.76 1000.59 1000.50 1001.05 1001.92 1002.80 1003.20 1003.81 1004.97 1005.96 1006.87 1007.95 1009.03 1010.07 1010.96 1011.78 1012.84 1014.02 1014.70 1015.42 1015.86 1016.29 1016.70 1016.91
1009.82 1007.53 1007.55 1008.37 1008.44 1008.94 1008.91 1007.44 1007.26 1007.28 1007.13 1006.34 1006.16 1003.75 1000.43 999.10 1000.13 1000.13 999.83 999.70 999.60 999.43 999.41 999.99 1000.94 1001.39 1002.22 1002.71 1003.31 1004.23 1005.33 1006.66 1008.00 1009.08 1010.55 1011.83 1012.99 1014.02 1014.70 1015.33 1015.81 1016.06 1016.80 1017.10
1008.88 1008.29 1008.09 1008.22 1007.83 1009.12 1007.61 1007.80 1007.48 1007.31 1007.62 1006.15 1005.28 1003.48 1000.29 997.83 998.84 999.27 999.13 999.17 998.83 998.76 998.81 999.05 999.61 1000.68 1001.43 1001.28 1002.15 1003.34 1004.50 1005.68 1006.97 1008.23 1009.48 1010.50 1011.46 1012.76 1013.70 1014.51 1015.32 1015.77 1016.39 1017.31
1006.72 1007.61 1007.74 1007.22 1006.68 1008.35 1006.08 1007.09 1006.96 1006.78 1006.77 1006.59 1004.10 1003.97 999.02 998.28 997.73 997.75 998.07 997.94 997.88 997.76 997.79 998.07 998.45 998.84 999.51 1000.95 1001.27 1002.30 1003.79 1005.11 1006.37 1007.60 1008.81 1010.11 1011.50 1012.53 1013.40 1014.61 1015.51 1016.14 1016.48 1017.43
1007.42 1007.50 1007.65 1007.34 1007.50 1007.74 1007.42 1006.84 1006.69 1006.54 1006.34 1005.56 1002.50 1002.17 1000.65 998.33 996.39 996.31 996.85 997.20 997.62 997.55 997.18 996.93 997.14 997.89 998.96 1000.29 1001.53 1002.46 1003.46 1004.43 1005.63 1006.58 1007.93 1009.23 1010.52 1011.68 1013.22 1014.37 1015.16 1015.89 1016.44 1017.36
1008.37 1007.23 1006.54 1007.81 1007.79 1007.34 1007.77 1007.87 1007.08 1006.40 1004.94 1003.14 1002.01 1002.63 1000.51 996.17 995.43 996.55 997.30 997.27 997.18 997.35 997.00 996.48 996.56 997.24 998.33 999.66 1000.67 1001.63 1002.51 1003.73 1005.01 1006.09 1007.45 1007.89 1008.47 1010.81 1012.21 1013.38 1014.36 1015.48 1016.30 1017.31
1009.62 1007.35 1006.21 1006.33 1006.73 1006.23 1006.63 1006.85 1007.24 1004.78 1004.61 1002.89 1002.42 1000.19 997.97 997.97 997.33 997.82 998.27 998.70 998.61 998.01 997.29 996.51 995.98 996.27 997.14 998.41 999.58 1000.66 1001.78 1003.10 1004.55 1005.70 1007.15 1008.16 1009.07 1010.30 1011.65 1012.66 1013.88 1014.96 1015.75 1016.67
1010.69 1008.85 1006.50 1006.54 1006.98 1006.96 1005.57 1005.85 1005.03 1005.99 1005.61 1003.93 1002.45 1000.58 998.95 998.17 998.94 998.96 999.40 999.21 999.12 998.76 997.87 996.92 995.99 995.60 996.02 997.25 998.46 999.72 1001.19 1002.84 1004.09 1005.24 1006.90 1008.34 1009.24 1009.90 1011.77 1012.69 1013.74 1014.63 1015.71 1016.67
1012.63 1010.38 1008.40 1006.96 1006.70 1006.18 1006.21 1005.59 1005.46 1005.54 1005.27 1003.92 1001.67 1001.29 1000.00 1000.33 1000.62 1000.89 1000.25 1000.37 1000.13 999.40 998.15 997.17 995.78 995.61 996.55 997.90 999.18 1000.76 1002.11 1002.93 1004.56 1005.68 1006.94 1008.34 1009.57 1009.84 1012.62 1012.97 1013.10 1014.18 1015.37 1015.90
1014.31 1013.05 1010.29 1009.42 1007.79 1008.41 1007.58 1006.43 1006.71 1005.56 1004.52 1003.45 1002.59 1002.13 1003.33 1003.58 1002.57 1002.59 1002.05 1001.64 1001.05 1000.53 999.21 998.17 997.58 997.84 998.36 999.34 1000.26 1001.31 1002.36 1003.60 1004.80 1005.89 1006.97 1008.23 1009.39 1010.56 1011.57 1014.12 1013.68 1014.28 1015.19 1015.96
1015.02 1014.33 1012.76 1011.13 1008.98 1008.71 1010.21 1009.26 1010.36 1006.96 1007.11 1006.34 1004.13 1003.85 1003.93 1004.46 1003.08 1002.78 1002.91 1002.24 1001.03 1000.55 1000.94 998.92 998.39 998.67 999.33 1000.33 1001.27 1002.02 1002.93 1003.78 1004.72 1005.90 1007.13 1007.92 1008.65 1009.60 1011.48 1013.63 1013.32 1014.45 1015.29 1016.10
1015.27 1014.84 1013.70 1010.85 1010.58 1010.39 1010.88 1010.50 1009.98 1009.90 1008.74 1007.37 1006.36 1004.73 1003.51 1003.44 1003.22 1002.77 1002.30 1002.40 1001.32 1000.74 1000.28 999.75 999.62 999.48 1000.10 1000.51 1001.17 1001.81 1002.88 1004.05 1005.03 1006.09 1007.57 1008.42 1010.20 1010.03 1011.84 1013.69 1013.88 1014.37 1015.71 1016.47
1015.44 1015.14 1014.97 1013.78 1012.14 1011.67 1011.06 1010.33 1009.87 1010.33 1008.84 1007.11 1007.08 1005.67 1003.32 1003.19 1002.27 1001.29 1001.04 1000.75 1000.21 999.40 1000.15 1000.59 1000.19 1000.35 1000.96 1001.52 1002.03 1002.53 1002.93 1003.46 1004.68 1006.10 1007.30 1008.64 1009.48 1010.17 1011.42 1013.06 1013.88 1015.09 1015.45 1016.34
1015.10 1015.41 1014.67 1013.68 1012.65 1012.07 1011.44 1009.63 1008.88 1008.86 1007.54 1008.51 1006.20 1005.77 1002.80 1000.67 1001.80 1001.47 1000.44 1000.74 999.88 999.05 999.93 1000.09 1000.63 1000.69 1001.43 1002.18 1002.58 1003.07 1003.83 1004.10 1005.48 1006.43 1007.63 1008.42 1009.88 1010.31 1011.31 1012.83 1013.60 1014.63 1015.69 1016.44
1015.46 1015.45 1014.69 1013.40 1012.45 1011.94 1010.99 1009.40 1007.91 1007.76 1007.18 1006.83 1005.89 1003.42 1002.23 1001.34 1000.97 999.97 1000.86 1000.92 1000.00 998.94 999.23 999.06 999.95 1000.88 1001.28 1001.68 1002.82 1003.16 1004.24 1004.73 1005.85 1006.84 1007.92 1008.90 1010.01 1010.99 1011.64 1012.80 1013.61 1014.53 1015.55 1016.61
1015.74 1015.93 1015.47 1014.43 1013.13 1012.14 1011.03 1007.89 1006.88 1006.14 1005.41 1005.09 1004.39 1003.85 1003.13 1000.53 1000.42 1000.14 999.75 999.97 999.23 998.90 997.91 998.32 999.40 999.75 1000.20 1000.92 1002.06 1002.68 1003.79 1005.01 1006.14 1007.23 1008.26 1008.70 1009.82 1011.20 1012.06 1012.80 1013.83 1014.64 1015.33 1016.87
1015.41 1016.12 1016.01 1014.78 1013.62 1012.01 1008.69 1007.24 1006.71 1005.82 1005.03 1005.11 1005.18 1004.36 1003.08 1002.44 1001.57 999.88 999.96 999.74 999.02 998.33 997.47 997.56 998.56 999.33 999.86 1000.65 1001.91 1002.92 1003.56 1005.07 1006.21 1007.20 1008.40 1008.92 1010.03 1011.19 1012.56 1013.45 1014.15 1014.84 1015.72 1016.61
1014.90 1016.02 1015.77 1015.05 1012.91 1010.49 1008.43 1007.52 1007.31 1006.74 1005.84 1005.90 1005.84 1004.49 1003.06 1002.46 1001.07 1000.02 1000.22 999.88 999.69 999.42 997.87 997.09 997.63 998.88 999.40 1000.25 1001.66 1002.70 1003.70 1004.75 1005.98 1006.80 1007.91 1008.96 1009.77 1011.20 1012.23 1013.41 1014.55 1015.29 1015.63 1016.96
1014.34 1015.25 1015.76 1014.97 1013.43 1010.94 1008.99 1008.01 1007.50 1006.94 1006.33 1005.90 1005.77 1004.72 1004.70 1003.27 1002.74 1002.04 1001.06 1000.17 999.76 999.89 999.24 997.81 997.90 998.92 999.79 1000.59 1001.69 1002.64 1003.71 1004.51 1005.47 1006.35 1007.38 1008.61 1009.44 1010.55 1011.99 1013.30 1014.12 1014.91 1016.28 1016.10
1014.23 1014.88 1015.07 1014.32 1013.36 1011.06 1010.06 1009.14 1007.25 1006.67 1007.19 1006.18 1005.78 1005.56 1005.07 1003.90 1003.39 1002.07 1001.65 1000.77 1000.18 999.50 999.91 1000.10 999.08 999.68 1000.21 1001.11 1001.84 1002.49 1003.51 1004.19 1005.07 1006.53 1007.56 1008.68 1009.75 1010.75 1011.64 1013.00 1014.20 1014.52 1016.34 1016.60
1013.71 1014.05 1014.08 1013.20 1011.91 1010.68 1009.99 1009.17 1008.73 1007.96 1006.70 1006.19 1005.34 1004.78 1004.19 1002.98 1002.75 1002.08 1001.75 1001.24 1000.51 1000.24 999.91 1000.42 1001.26 999.62 1000.59 1001.38 1001.49 1002.72 1003.71 1004.49 1005.16 1006.57 1007.99 1009.26 1010.08 1010.93 1011.53 1012.86 1014.11 1014.57 1016.04 1016.43
1013.08 1012.48 1012.53 1012.24 1010.40 1009.25 1009.31 1008.66 1007.82 1007.30 1006.48 1005.64 1005.09 1004.23 1003.52 1003.22 1002.61 1001.95 1001.36 1000.98 1000.77 1000.54 1000.84 1001.00 1001.96 1001.21 1001.40 1001.26 1001.89 1002.72 1003.74 1004.54 1005.54 1006.50 1008.02 1009.57 1010.40 1010.92 1011.48 1012.57 1013.38 1014.57 1015.33 1016.81
1011.82 1011.20 1011.43 1011.03 1009.21 1008.69 1008.36 1007.66 1007.05 1006.50 1006.00 1005.03 1004.45 1003.82 1003.19 1002.66 1002.06 1001.42 1000.81 1000.68 1000.55 1000.93 1001.54 1001.45 1001.17 1001.09 1002.04 1002.79 1002.86 1003.40 1003.99 1004.85 1006.05 1007.20 1008.29 1009.36 1010.20 1010.97 1012.00 1012.30 1012.84 1013.91 1015.23 1016.50
1010.84 1010.49 1010.00 1009.54 1008.62 1008.39 1007.47 1006.64 1006.38 1005.84 1005.46 1004.73 1003.96 1003.53 1002.76 1002.41 1001.62 1001.09 1000.52 1000.36 1000.65 1001.03 1001.38 1001.66 1001.51 1002.34 1003.10 1003.20 1003.52 1004.37 1004.89 1005.67 1006.72 1007.75 1008.51 1009.49 1010.44 1010.93 1011.81 1012.02 1012.66 1013.73 1014.69 1015.27
1009.32 1008.77 1009.40 1008.24 1007.64 1007.76 1006.79 1006.00 1005.67 1005.18 1004.57 1003.96 1003.46 1002.87 1002.38 1002.19 1002.01 1001.64 1001.33 1001.63 1001.45 1001.37 1001.40 1001.55 1001.91 1002.63 1003.29 1003.48 1003.90 1004.66 1005.13 1006.05 1006.93 1007.75 1008.75 1009.55 1010.20 1010.81 1011.39 1012.22 1013.00 1013.95 1014.56 1015.28
Thickness
5643 5633 5639 5654 5653 5657 5650 5643 5645 5652 5659 5653 5654 5685 5715 5706 5694 5697 5709 5708 5707 5711 5727 5716 5709 5706 5699 5690 5685 5678 5666 5657 5648 5642 5635 5627 5623 5614 5609 5606 5604 5601 5598 5597
5629 5648 5656 5651 5650 5645 5640 5635 5651 5659 5653 5641 5638 5672 5714 5702 5700 5697 5703 5706 5707 5708 5716 5716 5709 5701 5698 5692 5682 5674 5666 5655 5647 5638 5630 5624 5615 5605 5601 5595 5594 5591 5587 5586
5626 5655 5654 5642 5640 5628 5627 5638 5640 5634 5637 5644 5633 5657 5700 5723 5701 5703 5707 5708 5710 5709 5713 5710 5702 5700 5693 5690 5687 5679 5668 5656 5646 5637 5625 5613 5603 5595 5590 5588 5585 5583 5576 5575
5621 5636 5636 5631 5629 5613 5622 5632 5627 5625 5611 5615 5633 5623 5685 5719 5702 5699 5700 5697 5702 5700 5703 5705 5702 5692 5688 5692 5686 5677 5667 5655 5646 5634 5622 5613 5607 5597 5591 5585 5577 5575 5569 5563
5634 5624 5619 5623 5631 5605 5625 5622 5619 5617 5606 5600 5635 5601 5673 5703 5697 5701 5695 5695 5700 5699 5699 5700 5697 5697 5695 5682 5681 5676 5665 5653 5643 5630 5618 5605 5594 5586 5580 5571 5564 5561 5559 5551
5612 5616 5608 5611 5612 5604 5609 5607 5603 5601 5597 5581 5638 5621 5632 5678 5700 5701 5699 5693 5691 5689 5694 5698 5700 5695 5687 5676 5668 5664 5658 5650 5639 5629 5616 5601 5592 5582 5570 5562 5558 5553 5548 5540
5586 5598 5611 5595 5584 5600 5585 5582 5567 5569 5575 5580 5636 5600 5619 5693 5703 5690 5683 5681 5682 5681 5686 5688 5689 5687 5680 5671 5664 5657 5652 5643 5631 5621 5609 5604 5598 5578 5568 5559 5553 5545 5539 5531
5554 5576 5606 5600 5583 5589 5578 5576 5558 5562 5564 5585 5602 5593 5629 5659 5674 5661 5651 5649 5651 5656 5661 5674 5681 5683 5677 5668 5660 5652 5644 5634 5622 5613 5601 5590 5585 5571 5563 5555 5545 5538 5533 5526
5527 5544 5594 5584 5572 5571 5581 5557 5587 5550 5560 5549 5579 5598 5622 5645 5625 5627 5623 5627 5629 5630 5639 5651 5663 5673 5673 5666 5658 5648 5636 5624 5615 5606 5592 5579 5573 5566 5547 5545 5537 5530 5521 5515
5499 5513 5547 5563 5558 5565 5556 5576 5549 5548 5540 5541 5563 5580 5597 5598 5586 5585 5597 5599 5602 5608 5619 5631 5648 5656 5653 5645 5636 5624 5616 5611 5599 5590 5580 5566 5559 5557 5525 5526 5530 5524 5515 5511
5457 5470 5501 5515 5530 5518 5541 5548 5542 5545 5549 5549 5557 5567 5542 5536 5543 5553 5561 5571 5579 5582 5593 5607 5619 5618 5616 5614 5610 5606 5599 5592 5582 5575 5568 5559 5550 5540 5529 5505 5513 5512 5505 5499
5441 5437 5454 5468 5507 5509 5498 5493 5482 5500 5506 5509 5529 5542 5504 5501 5523 5537 5539 5546 5565 5567 5564 5587 5596 5599 5597 5593 5590 5584 5579 5574 5570 5565 5556 5549 5531 5531 5518 5499 5509 5501 5494 5489
5429 5430 5430 5476 5483 5469 5459 5463 5467 5458 5470 5479 5480 5506 5530 5520 5519 5529 5532 5534 5548 5553 5556 5567 5572 5577 5575 5579 5576 5575 5567 5561 5555 5549 5538 5533 5509 5517 5506 5492 5492 5490 5479 5475
5423 5421 5418 5418 5444 5442 5447 5458 5462 5451 5454 5462 5465 5483 5524 5516 5515 5527 5537 5540 5547 5557 5552 5547 5556 5559 5558 5558 5551 5553 5556 5554 5546 5537 5529 5515 5510 5511 5501 5489 5480 5473 5472 5467
5412 5405 5420 5428 5438 5434 5430 5455 5462 5452 5460 5443 5480 5479 5515 5522 5513 5521 5532 5534 5542 5553 5545 5545 5540 5545 5541 5536 5535 5535 5535 5536 5527 5523 5510 5508 5497 5499 5494 5479 5474 5467 5461 5457
5392 5377 5396 5386 5427 5433 5429 5446 5457 5462 5464 5463 5465 5485 5503 5511 5522 5528 5521 5522 5532 5549 5548 5548 5541 5534 5535 5531 5523 5528 5520 5520 5515 5510 5503 5497 5490 5483 5481 5473 5467 5460 5453 5445
5376 5362 5370 5383 5416 5413 5398 5451 5461 5469 5478 5467 5464 5488 5486 5508 5518 5522 5522 5522 5531 5539 5556 5550 5537 5539 5537 5528 5522 5523 5516 5508 5504 5498 5491 5493 5484 5473 5469 5465 5455 5449 5446 5432
5373 5362 5352 5364 5393 5348 5429 5452 5454 5458 5468 5458 5461 5467 5469 5477 5495 5513 5513 5512 5521 5531 5551 5550 5542 5536 5532 5524 5517 5511 5508 5500 5495 5490 5481 5477 5471 5463 5453 5445 5442 5438 5431 5424
5373 5361 5346 5337 5380 5405 5431 5436 5424 5427 5444 5435 5434 5455 5467 5471 5487 5501 5498 5503 5507 5511 5528 5543 5542 5531 5527 5520 5510 5502 5498 5494 5486 5483 5476 5468 5463 5453 5446 5437 5427 5421 5421 5412
5367 5357 5350 5344 5363 5379 5418 5417 5419 5425 5424 5427 5429 5437 5443 5462 5461 5465 5483 5491 5500 5495 5498 5524 5527 5519 5512 5507 5500 5494 5489 5486 5480 5477 5471 5462 5457 5449 5438 5427 5422 5417 5407 5408
5341 5297 5318 5336 5349 5382 5384 5388 5410 5414 5411 5415 5422 5424 5428 5445 5449 5460 5467 5478 5486 5488 5483 5489 5507 5500 5495 5491 5491 5487 5483 5481 5476 5465 5459 5452 5443 5436 5430 5421 5412 5410 5396 5394
5359 5323 5310 5319 5351 5360 5378 5386 5383 5394 5405 5406 5416 5428 5430 5439 5440 5449 5453 5462 5474 5478 5482 5475 5473 5487 5486 5483 5485 5478 5473 5467 5464 5455 5446 5436 5430 5424 5422 5412 5403 5399 5389 5389
5346 5346 5337 5347 5360 5385 5372 5378 5390 5397 5405 5410 5414 5426 5417 5418 5434 5442 5451 5458 5469 5469 5464 5464 5455 5466 5471 5477 5477 5473 5465 5459 5453 5447 5435 5422 5419 5417 5413 5403 5398 5390 5388 5381
5356 5363 5339 5350 5376 5376 5381 5387 5394 5399 5400 5411 5418 5426 5430 5431 5437 5444 5452 5456 5459 5450 5450 5453 5459 5464 5460 5456 5459 5456 5454 5450 5441 5433 5425 5416 5412 5405 5397 5398 5396 5390 5383 5377
5344 5356 5353 5351 5366 5364 5375 5387 5392 5397 5401 5408 5419 5421 5428 5432 5438 5442 5448 5452 5444 5444 5446 5449 5454 5451 5444 5445 5443 5438 5436 5434 5427 5421 5416 5407 5399 5398 5394 5396 5392 5385 5380 5377
5352 5358 5334 5346 5364 5354 5370 5383 5388 5396 5405 5413 5417 5423 5428 5430 5429 5431 5433 5431 5435 5438 5442 5444 5443 5438 5433 5432 5431 5427 5426 5423 5418 5413 5405 5399 5395 5393 5389 5384 5382 5377 5373 5368